QPF
0.00 0.00 0.00 0.00 0.00 0.00 0.00 0.00 0.00 0.00 0.00 0.00 0.00 0.00 0.00 0.00 0.00 0.00 0.00 0.00 0.00 0.00 0.00 0.00 0.00 0.00 0.00 0.00 0.00 0.00 0.00 0.00 0.00 0.00 0.00 0.00 0.00 0.00 0.00 0.00 0.00 0.00 0.00 0.00
0.00 0.00 0.00 0.00 0.00 0.00 0.00 0.00 0.00 0.00 0.00 0.00 0.00 0.00 0.00 0.00 0.00 0.00 0.00 0.00 0.00 0.00 0.00 0.00 0.00 0.00 0.00 0.00 0.00 0.00 0.00 0.00 0.00 0.00 0.00 0.00 0.00 0.00 0.00 0.00 0.00 0.00 0.00 0.00
0.00 0.00 0.00 0.00 0.00 0.00 0.00 0.00 0.00 0.00 0.00 0.00 0.00 0.00 0.00 0.00 0.00 0.00 0.00 0.00 0.00 0.00 0.00 0.00 0.00 0.00 0.00 0.00 0.00 0.00 0.00 0.00 0.00 0.00 0.00 0.00 0.00 0.00 0.00 0.00 0.00 0.00 0.00 0.00
0.00 0.00 0.00 0.00 0.00 0.00 0.00 0.00 0.00 0.00 0.00 0.00 0.00 0.00 0.00 0.00 0.00 0.00 0.00 0.00 0.00 0.00 0.00 0.00 0.00 0.00 0.00 0.00 0.00 0.00 0.00 0.00 0.00 0.00 0.00 0.00 0.00 0.00 0.00 0.00 0.00 0.00 0.00 0.00
0.00 0.00 0.00 0.00 0.00 0.00 0.00 0.00 0.00 0.00 0.00 0.00 0.00 0.00 0.00 0.00 0.00 0.00 0.00 0.00 0.00 0.00 0.00 0.00 0.00 0.00 0.00 0.00 0.00 0.00 0.00 0.00 0.00 0.00 0.00 0.00 0.00 0.00 0.00 0.00 0.00 0.00 0.00 0.00
0.00 0.00 0.00 0.00 0.00 0.00 0.00 0.00 0.00 0.00 0.00 0.00 0.00 0.00 0.00 0.00 0.00 0.00 0.00 0.00 0.00 0.00 0.00 0.00 0.00 0.00 0.00 0.00 0.00 0.00 0.00 0.00 0.00 0.00 0.00 0.00 0.00 0.00 0.00 0.00 0.00 0.00 0.00 0.00
0.00 0.00 0.00 0.00 0.00 0.00 0.00 0.00 0.00 0.00 0.00 0.00 0.00 0.00 0.00 0.00 0.00 0.00 0.00 0.00 0.00 0.00 0.00 0.00 0.00 0.00 0.00 0.00 0.00 0.00 0.00 0.00 0.00 0.00 0.00 0.00 0.00 0.00 0.00 0.00 0.00 0.00 0.00 0.00
0.00 0.00 0.00 0.00 0.00 0.00 0.00 0.00 0.00 0.00 0.00 0.00 0.00 0.00 0.00 0.00 0.00 0.00 0.00 0.00 0.00 0.00 0.00 0.00 0.00 0.00 0.00 0.00 0.00 0.00 0.00 0.00 0.00 0.00 0.00 0.00 0.00 0.00 0.00 0.00 0.00 0.00 0.00 0.00
0.00 0.00 0.00 0.00 0.00 0.00 0.00 0.00 0.00 0.00 0.00 0.00 0.00 0.00 0.00 0.00 0.00 0.00 0.00 0.00 0.00 0.00 0.00 0.00 0.00 0.00 0.00 0.00 0.00 0.00 0.00 0.00 0.00 0.00 0.00 0.00 0.00 0.00 0.00 0.00 0.00 0.00 0.00 0.00
0.00 0.00 0.00 0.00 0.00 0.00 0.00 0.00 0.00 0.00 0.00 0.00 0.00 0.00 0.00 0.00 0.00 0.00 0.00 0.00 0.00 0.00 0.00 0.00 0.00 0.00 0.00 0.00 0.00 0.00 0.00 0.00 0.00 0.00 0.00 0.00 0.00 0.00 0.00 0.00 0.00 0.00 0.00 0.00
0.00 0.00 0.00 0.00 0.00 0.00 0.00 0.00 0.00 0.00 0.00 0.00 0.00 0.00 0.00 0.00 0.00 0.00 0.00 0.00 0.00 0.00 0.00 0.00 0.00 0.00 0.00 0.00 0.00 0.00 0.00 0.00 0.00 0.00 0.00 0.00 0.00 0.00 0.00 0.00 0.00 0.00 0.00 0.00
0.00 0.03 0.01 0.00 0.00 0.00 0.00 0.00 0.00 0.00 0.00 0.00 0.00 0.00 0.00 0.00 0.00 0.00 0.00 0.00 0.00 0.00 0.00 0.00 0.00 0.00 0.00 0.00 0.00 0.00 0.00 0.00 0.00 0.00 0.00 0.00 0.00 0.00 0.00 0.00 0.00 0.00 0.00 0.00
0.02 0.03 0.02 0.00 0.00 0.00 0.00 0.00 0.00 0.00 0.00 0.00 0.01 0.00 0.00 0.00 0.00 0.00 0.00 0.00 0.00 0.00 0.00 0.00 0.00 0.00 0.00 0.00 0.00 0.00 0.00 0.00 0.00 0.00 0.00 0.00 0.00 0.00 0.00 0.00 0.00 0.00 0.00 0.00
0.00 0.00 0.01 0.01 0.00 0.00 0.00 0.00 0.00 0.00 0.00 0.00 0.00 0.00 0.00 0.00 0.00 0.00 0.00 0.00 0.00 0.00 0.00 0.00 0.00 0.00 0.00 0.00 0.00 0.00 0.00 0.00 0.00 0.00 0.00 0.00 0.00 0.00 0.00 0.00 0.00 0.00 0.00 0.00
0.00 0.00 0.00 0.00 0.00 0.00 0.00 0.00 0.00 0.00 0.00 0.00 0.00 0.00 0.00 0.00 0.00 0.00 0.00 0.00 0.00 0.00 0.00 0.00 0.00 0.00 0.00 0.00 0.00 0.00 0.00 0.00 0.00 0.00 0.00 0.00 0.00 0.00 0.00 0.00 0.00 0.00 0.00 0.00
0.00 0.00 0.00 0.00 0.00 0.00 0.00 0.00 0.00 0.00 0.00 0.00 0.00 0.00 0.00 0.00 0.00 0.00 0.00 0.00 0.00 0.00 0.00 0.00 0.00 0.00 0.00 0.00 0.00 0.00 0.00 0.00 0.00 0.00 0.00 0.00 0.00 0.00 0.00 0.00 0.00 0.00 0.00 0.00
0.00 0.00 0.00 0.00 0.00 0.00 0.00 0.00 0.00 0.00 0.00 0.00 0.00 0.00 0.00 0.00 0.00 0.00 0.00 0.00 0.00 0.00 0.00 0.00 0.00 0.00 0.00 0.00 0.00 0.00 0.00 0.00 0.00 0.00 0.00 0.00 0.00 0.00 0.00 0.00 0.00 0.00 0.00 0.00
0.00 0.00 0.00 0.00 0.00 0.00 0.00 0.00 0.00 0.00 0.00 0.00 0.00 0.00 0.00 0.00 0.00 0.00 0.00 0.00 0.00 0.00 0.00 0.00 0.00 0.00 0.00 0.00 0.00 0.00 0.00 0.00 0.00 0.00 0.00 0.00 0.00 0.00 0.00 0.00 0.00 0.00 0.00 0.00
0.00 0.00 0.00 0.00 0.00 0.00 0.00 0.00 0.00 0.00 0.00 0.00 0.00 0.00 0.00 0.00 0.00 0.00 0.00 0.00 0.00 0.00 0.00 0.00 0.00 0.00 0.00 0.00 0.00 0.00 0.00 0.00 0.00 0.00 0.00 0.00 0.00 0.00 0.00 0.00 0.00 0.00 0.00 0.00
0.00 0.00 0.00 0.00 0.00 0.00 0.00 0.00 0.00 0.00 0.00 0.00 0.00 0.00 0.00 0.00 0.00 0.00 0.00 0.00 0.00 0.00 0.00 0.00 0.00 0.00 0.00 0.00 0.00 0.00 0.00 0.00 0.00 0.00 0.00 0.00 0.00 0.00 0.00 0.00 0.00 0.00 0.00 0.00
0.00 0.00 0.00 0.00 0.00 0.00 0.00 0.00 0.00 0.00 0.00 0.00 0.00 0.00 0.00 0.00 0.00 0.00 0.00 0.00 0.00 0.00 0.00 0.00 0.00 0.00 0.00 0.00 0.00 0.00 0.00 0.00 0.00 0.00 0.00 0.00 0.00 0.00 0.00 0.00 0.00 0.00 0.00 0.00
0.00 0.00 0.00 0.00 0.00 0.00 0.00 0.00 0.00 0.00 0.00 0.00 0.00 0.00 0.00 0.00 0.00 0.00 0.00 0.00 0.00 0.00 0.00 0.00 0.00 0.00 0.00 0.00 0.00 0.00 0.00 0.00 0.00 0.00 0.00 0.00 0.00 0.00 0.00 0.00 0.00 0.00 0.00 0.00
0.00 0.00 0.00 0.00 0.00 0.00 0.00 0.00 0.00 0.00 0.00 0.00 0.00 0.00 0.00 0.00 0.00 0.00 0.00 0.00 0.00 0.00 0.00 0.00 0.00 0.00 0.00 0.00 0.00 0.00 0.00 0.00 0.00 0.00 0.00 0.00 0.00 0.00 0.00 0.00 0.00 0.00 0.00 0.00
0.00 0.00 0.00 0.00 0.00 0.00 0.00 0.00 0.00 0.00 0.00 0.00 0.00 0.00 0.00 0.00 0.00 0.00 0.00 0.00 0.00 0.00 0.00 0.00 0.00 0.00 0.00 0.00 0.00 0.00 0.00 0.00 0.00 0.00 0.00 0.00 0.00 0.00 0.00 0.00 0.00 0.00 0.00 0.00
0.00 0.00 0.00 0.00 0.00 0.00 0.00 0.00 0.00 0.00 0.00 0.00 0.00 0.00 0.00 0.00 0.00 0.00 0.00 0.00 0.00 0.00 0.00 0.00 0.00 0.00 0.00 0.00 0.00 0.00 0.00 0.00 0.00 0.00 0.00 0.00 0.00 0.00 0.00 0.00 0.00 0.00 0.00 0.00
0.00 0.00 0.00 0.00 0.00 0.00 0.00 0.00 0.00 0.00 0.00 0.00 0.00 0.00 0.00 0.00 0.00 0.00 0.00 0.00 0.00 0.00 0.00 0.00 0.00 0.00 0.00 0.00 0.00 0.00 0.00 0.00 0.00 0.00 0.00 0.00 0.00 0.00 0.00 0.00 0.00 0.00 0.00 0.00
MSLP
1016.54 1016.08 1014.91 1014.06 1014.00 1013.41 1013.65 1013.28 1012.44 1012.18 1012.08 1011.83 1010.77 1009.83 1009.65 1009.07 1007.83 1006.55 1006.44 1005.93 1006.15 1006.22 1006.82 1007.05 1007.18 1007.38 1007.55 1007.58 1007.81 1008.26 1008.81 1009.44 1010.06 1010.63 1011.07 1011.50 1011.58 1012.21 1012.30 1012.48 1013.09 1013.82 1014.33 1015.02
1016.87 1015.48 1014.77 1014.59 1014.51 1014.38 1013.95 1013.21 1012.58 1011.92 1012.17 1012.23 1010.74 1009.64 1008.95 1007.71 1007.08 1006.34 1006.03 1006.04 1006.38 1006.83 1006.99 1007.29 1007.59 1007.65 1008.10 1008.44 1008.56 1008.61 1008.81 1009.22 1009.91 1010.40 1010.82 1011.15 1011.57 1011.98 1012.50 1012.85 1013.20 1013.52 1014.10 1014.60
1015.71 1014.85 1015.12 1015.35 1015.11 1014.61 1013.51 1013.47 1012.70 1012.41 1012.57 1012.16 1011.19 1008.95 1008.34 1007.07 1006.56 1006.08 1006.27 1006.49 1007.35 1007.75 1007.70 1008.16 1008.64 1009.16 1009.25 1009.07 1008.87 1008.92 1009.10 1009.39 1009.91 1010.39 1010.79 1011.35 1011.78 1011.74 1012.10 1012.58 1013.20 1013.72 1014.11 1014.43
1015.95 1015.62 1015.56 1015.66 1015.18 1014.76 1013.95 1013.17 1013.31 1013.24 1013.42 1012.22 1012.21 1008.84 1008.10 1006.76 1005.95 1006.48 1006.70 1007.47 1008.18 1008.87 1009.27 1009.86 1010.23 1010.71 1010.96 1010.89 1010.19 1009.84 1009.73 1009.64 1010.09 1010.56 1010.75 1010.94 1011.15 1011.18 1011.33 1011.70 1012.59 1013.47 1014.10 1014.14
1015.67 1016.02 1016.05 1015.75 1015.16 1015.13 1014.21 1014.42 1013.92 1013.77 1013.42 1012.87 1011.98 1011.12 1007.24 1007.01 1006.84 1007.18 1008.07 1008.62 1009.62 1010.77 1010.94 1011.60 1012.20 1012.39 1012.63 1011.59 1011.32 1011.38 1010.60 1010.27 1010.38 1010.85 1011.04 1011.25 1011.45 1011.14 1011.16 1011.52 1011.83 1012.49 1013.50 1014.16
1015.85 1016.34 1016.24 1015.29 1015.34 1015.53 1015.04 1014.80 1014.51 1013.91 1013.73 1011.98 1010.12 1010.19 1008.15 1007.40 1007.67 1008.42 1009.28 1010.53 1011.43 1012.02 1012.79 1013.60 1013.99 1013.24 1013.03 1013.14 1012.93 1012.48 1011.86 1011.83 1011.81 1011.28 1011.37 1011.36 1011.38 1011.58 1011.42 1011.77 1012.04 1012.45 1012.93 1013.17
1015.95 1015.60 1015.43 1015.41 1015.35 1015.67 1015.57 1015.32 1014.81 1013.77 1013.43 1011.45 1011.13 1010.38 1008.56 1008.13 1008.81 1010.36 1011.30 1012.69 1013.31 1014.35 1014.01 1013.47 1013.83 1014.08 1014.24 1014.15 1014.10 1013.66 1013.32 1012.83 1012.39 1012.26 1012.32 1012.03 1011.77 1011.54 1011.54 1011.64 1011.77 1012.02 1012.31 1012.71
1016.25 1014.32 1015.09 1015.01 1014.87 1014.63 1015.28 1015.43 1016.20 1015.08 1013.99 1012.21 1011.61 1009.56 1008.20 1008.80 1010.79 1012.26 1013.03 1013.56 1013.81 1013.74 1014.24 1014.74 1014.77 1014.77 1014.89 1014.97 1014.59 1014.32 1013.86 1013.45 1013.41 1013.22 1012.68 1012.29 1012.26 1012.27 1011.89 1011.57 1011.68 1011.45 1011.54 1011.59
1016.10 1015.39 1015.39 1015.44 1015.01 1015.01 1015.61 1015.72 1015.35 1015.49 1015.60 1014.49 1011.41 1009.40 1009.41 1009.85 1011.62 1012.97 1013.83 1014.67 1015.22 1015.78 1015.64 1015.68 1015.74 1015.56 1015.05 1014.95 1015.25 1014.67 1014.65 1014.62 1014.01 1013.49 1013.59 1013.16 1012.89 1012.49 1012.14 1012.01 1012.00 1011.33 1011.11 1011.30
1017.08 1016.69 1015.45 1015.29 1015.48 1015.10 1014.62 1014.82 1015.58 1016.04 1015.41 1013.86 1010.74 1009.78 1009.50 1010.81 1012.40 1013.70 1014.47 1015.68 1016.28 1016.48 1016.20 1016.10 1016.09 1015.95 1015.76 1015.51 1015.57 1015.66 1015.48 1015.15 1014.79 1014.54 1013.87 1013.58 1013.69 1013.07 1012.21 1012.25 1011.98 1011.96 1011.40 1010.91
1017.48 1017.25 1015.52 1015.74 1014.97 1014.46 1015.20 1014.92 1015.21 1015.54 1015.88 1014.07 1012.08 1009.97 1010.08 1011.76 1013.66 1014.56 1015.73 1016.25 1016.59 1016.72 1016.66 1016.39 1016.03 1015.98 1016.15 1016.10 1015.85 1015.73 1015.72 1015.41 1014.92 1014.38 1014.11 1013.87 1013.62 1013.52 1013.53 1013.31 1012.60 1011.82 1011.48 1011.03
1017.30 1017.08 1016.07 1014.70 1013.78 1014.25 1014.55 1014.39 1014.70 1014.56 1014.14 1013.47 1011.77 1010.15 1010.78 1012.83 1014.31 1015.47 1016.45 1017.11 1017.20 1017.32 1017.22 1017.16 1017.06 1016.95 1016.56 1016.39 1016.38 1016.04 1015.95 1015.92 1015.65 1015.33 1014.76 1014.13 1013.64 1013.26 1013.07 1012.71 1012.22 1011.93 1011.31 1011.04
1018.22 1017.67 1016.56 1014.71 1014.24 1014.82 1015.15 1014.64 1014.52 1014.20 1013.75 1012.91 1012.09 1010.85 1012.89 1014.02 1015.18 1016.00 1016.85 1017.57 1017.94 1017.77 1017.70 1017.68 1017.38 1017.42 1017.25 1017.04 1016.83 1016.54 1016.46 1016.20 1016.03 1015.81 1015.02 1014.76 1014.35 1013.57 1013.25 1013.07 1012.74 1012.18 1011.42 1010.90
1019.09 1018.62 1018.14 1017.03 1016.49 1016.76 1016.53 1016.47 1016.42 1016.01 1014.73 1013.65 1013.02 1012.84 1013.43 1013.59 1014.45 1015.62 1016.65 1017.85 1018.10 1018.04 1017.80 1018.03 1017.46 1017.55 1017.41 1017.24 1017.55 1017.44 1016.78 1016.39 1016.15 1015.70 1015.28 1014.65 1014.63 1014.06 1013.55 1013.06 1012.80 1012.27 1011.48 1010.88
1020.08 1019.40 1018.73 1017.77 1017.43 1017.31 1017.06 1017.03 1016.64 1016.41 1015.88 1015.40 1014.12 1014.45 1014.21 1014.77 1016.05 1016.41 1017.01 1017.44 1017.84 1017.95 1018.07 1018.09 1017.77 1017.74 1017.45 1017.45 1017.41 1017.84 1017.22 1016.58 1016.30 1015.81 1015.53 1014.95 1014.49 1014.10 1013.69 1013.13 1012.53 1012.04 1011.54 1011.00
1021.07 1019.90 1019.62 1018.65 1018.26 1018.06 1017.74 1017.39 1016.67 1016.39 1016.04 1015.49 1015.12 1014.31 1014.56 1015.84 1016.39 1016.78 1016.88 1017.22 1017.33 1017.27 1017.44 1017.64 1017.53 1017.81 1017.68 1017.66 1017.82 1017.74 1017.33 1016.72 1016.39 1016.21 1015.78 1015.19 1014.49 1014.02 1013.36 1013.13 1012.64 1011.99 1011.36 1010.93
1021.74 1021.07 1020.56 1019.18 1018.98 1018.90 1017.79 1015.91 1015.95 1015.25 1014.91 1014.83 1014.75 1015.33 1016.34 1016.63 1016.68 1016.65 1016.55 1016.55 1016.51 1016.54 1016.72 1017.14 1017.56 1017.64 1017.46 1017.49 1017.80 1017.78 1017.39 1016.55 1016.16 1016.04 1015.77 1015.28 1014.75 1014.12 1013.38 1013.05 1012.66 1011.83 1011.17 1010.03
1021.20 1021.36 1021.46 1020.04 1020.60 1018.53 1015.92 1016.12 1015.91 1015.45 1015.36 1015.94 1016.52 1016.96 1017.23 1017.16 1016.87 1016.72 1016.74 1016.62 1016.54 1016.57 1016.70 1016.74 1016.93 1016.95 1017.10 1017.37 1017.56 1017.32 1016.90 1016.58 1016.28 1015.82 1015.20 1014.60 1014.27 1013.71 1013.16 1012.81 1012.23 1011.15 1010.27 1009.29
1021.05 1021.35 1021.16 1021.17 1019.56 1017.37 1016.91 1016.49 1016.45 1016.32 1016.02 1016.64 1017.18 1017.55 1017.59 1017.37 1017.13 1016.27 1016.36 1016.37 1016.16 1016.13 1016.23 1016.42 1016.46 1016.60 1016.73 1016.86 1016.78 1016.59 1016.10 1015.74 1015.43 1015.15 1014.92 1014.57 1014.23 1013.65 1013.19 1012.65 1011.83 1010.91 1009.92 1008.81
1021.12 1021.41 1021.45 1021.70 1020.13 1017.89 1016.57 1016.91 1017.04 1017.12 1016.68 1017.25 1017.67 1017.71 1017.71 1017.65 1016.97 1015.65 1015.59 1015.63 1015.79 1015.82 1016.13 1016.37 1016.36 1016.32 1016.18 1016.09 1016.26 1016.17 1015.84 1015.54 1015.07 1014.62 1014.19 1013.91 1013.73 1013.42 1012.89 1012.25 1011.36 1010.53 1009.82 1008.97
1021.42 1021.25 1020.72 1020.19 1019.41 1017.67 1016.98 1017.23 1017.47 1017.29 1016.82 1017.05 1017.47 1017.38 1017.35 1017.21 1016.62 1015.87 1015.77 1015.60 1015.66 1015.89 1016.13 1016.39 1016.39 1016.31 1016.11 1016.06 1015.99 1015.58 1015.34 1014.97 1014.70 1014.33 1013.87 1013.42 1013.13 1012.82 1012.47 1011.90 1011.12 1010.47 1009.56 1008.51
1020.26 1020.08 1020.21 1020.46 1019.53 1017.87 1017.17 1017.60 1017.33 1016.10 1016.15 1016.36 1016.54 1016.50 1016.46 1016.38 1016.17 1015.97 1015.80 1015.62 1015.73 1016.27 1016.42 1016.48 1016.52 1016.39 1016.12 1016.31 1016.25 1015.59 1014.98 1014.66 1014.31 1014.03 1013.56 1013.14 1012.81 1012.35 1011.81 1011.36 1010.57 1009.99 1009.19 1007.97
1019.67 1018.79 1018.81 1019.16 1017.71 1016.74 1016.98 1016.33 1015.91 1015.70 1015.66 1015.57 1015.90 1015.88 1016.06 1016.12 1016.07 1016.11 1016.08 1016.37 1016.68 1017.07 1017.15 1017.13 1017.09 1016.74 1016.45 1016.46 1016.47 1015.78 1014.91 1014.76 1014.20 1013.72 1013.28 1012.95 1012.47 1011.91 1011.40 1010.62 1009.67 1008.98 1008.18 1006.99
1017.75 1017.88 1017.88 1017.87 1016.35 1016.08 1015.72 1015.27 1014.96 1014.91 1015.06 1015.24 1015.57 1015.81 1016.23 1016.45 1016.70 1016.99 1017.23 1017.41 1017.62 1017.84 1017.87 1017.84 1017.63 1017.21 1016.72 1016.84 1016.77 1016.58 1015.79 1015.30 1014.61 1013.71 1013.00 1012.52 1011.93 1011.17 1010.64 1009.86 1008.96 1007.90 1006.75 1005.60
1016.19 1016.80 1016.48 1016.23 1015.33 1015.19 1014.55 1014.56 1014.42 1014.52 1014.98 1015.45 1016.03 1016.48 1016.86 1017.31 1017.55 1017.83 1018.08 1018.39 1018.55 1018.66 1018.68 1018.74 1018.63 1018.07 1017.31 1017.14 1016.76 1016.58 1016.02 1015.55 1014.62 1013.83 1013.07 1012.30 1011.55 1010.62 1009.54 1008.75 1007.89 1006.83 1005.69 1004.94
1015.05 1015.08 1015.29 1014.41 1013.87 1013.95 1013.20 1013.72 1014.24 1014.78 1015.17 1016.09 1016.72 1017.29 1017.78 1018.25 1018.47 1018.71 1018.93 1019.17 1019.36 1019.34 1019.39 1019.23 1019.00 1018.62 1017.99 1017.49 1016.70 1016.18 1015.95 1015.48 1014.53 1013.37 1012.47 1011.59 1010.71 1009.74 1008.72 1007.51 1006.17 1005.73 1004.50 1003.42
Thickness
5655 5653 5656 5672 5668 5673 5658 5653 5656 5670 5675 5660 5671 5675 5677 5688 5701 5713 5715 5720 5718 5715 5711 5711 5711 5710 5709 5711 5709 5707 5703 5697 5692 5687 5684 5681 5681 5675 5675 5674 5668 5661 5657 5652
5640 5642 5659 5657 5651 5644 5645 5644 5647 5660 5661 5648 5659 5662 5675 5685 5695 5705 5707 5709 5707 5703 5704 5701 5700 5700 5697 5694 5694 5694 5693 5690 5684 5680 5676 5674 5671 5669 5663 5660 5657 5653 5648 5643
5644 5651 5642 5633 5634 5635 5648 5632 5643 5640 5642 5643 5640 5660 5659 5685 5687 5696 5695 5696 5690 5686 5692 5690 5684 5680 5679 5682 5683 5682 5681 5679 5674 5669 5666 5661 5658 5659 5656 5651 5644 5639 5635 5633
5624 5632 5626 5616 5620 5627 5622 5646 5632 5624 5614 5622 5623 5635 5656 5676 5683 5678 5676 5673 5671 5671 5671 5666 5664 5659 5656 5656 5662 5667 5667 5667 5664 5660 5657 5654 5651 5651 5649 5646 5639 5630 5623 5622
5622 5610 5605 5606 5615 5612 5619 5613 5615 5611 5608 5601 5613 5605 5654 5658 5652 5661 5654 5653 5648 5642 5644 5639 5636 5635 5632 5641 5643 5642 5648 5650 5648 5643 5641 5639 5637 5639 5639 5635 5631 5625 5616 5609
5606 5598 5597 5607 5601 5598 5599 5601 5601 5595 5597 5604 5631 5615 5631 5645 5644 5643 5637 5625 5620 5620 5617 5609 5608 5616 5618 5617 5618 5621 5625 5623 5622 5627 5625 5625 5624 5621 5625 5621 5618 5613 5608 5604
5595 5599 5594 5591 5590 5583 5586 5585 5581 5594 5589 5608 5600 5598 5620 5638 5636 5616 5612 5598 5594 5589 5592 5596 5593 5592 5589 5591 5590 5595 5599 5602 5604 5603 5602 5604 5606 5608 5606 5605 5605 5605 5601 5596
5564 5589 5586 5585 5587 5590 5574 5574 5550 5553 5573 5591 5593 5593 5618 5624 5597 5585 5584 5577 5575 5575 5570 5566 5566 5567 5566 5566 5569 5573 5576 5581 5580 5581 5583 5585 5584 5583 5586 5589 5588 5591 5590 5590
5559 5569 5568 5564 5570 5573 5558 5555 5569 5542 5535 5528 5581 5609 5604 5596 5580 5570 5562 5557 5548 5542 5540 5539 5539 5541 5546 5549 5545 5553 5550 5549 5555 5560 5557 5559 5560 5563 5564 5564 5564 5573 5574 5572
5535 5534 5561 5559 5555 5558 5561 5562 5545 5540 5520 5530 5578 5585 5590 5583 5563 5551 5543 5531 5527 5524 5527 5525 5524 5524 5524 5525 5522 5521 5523 5525 5528 5529 5537 5540 5536 5539 5544 5542 5543 5543 5550 5556
5521 5519 5551 5538 5551 5560 5539 5536 5536 5522 5510 5523 5528 5568 5589 5565 5534 5528 5514 5508 5507 5505 5503 5504 5504 5502 5497 5498 5500 5498 5497 5500 5505 5509 5512 5514 5516 5515 5514 5516 5521 5527 5528 5532
5516 5508 5510 5534 5556 5538 5531 5532 5529 5520 5523 5519 5527 5538 5575 5536 5512 5502 5487 5483 5480 5478 5478 5474 5470 5470 5471 5470 5468 5471 5472 5471 5473 5479 5482 5488 5495 5499 5498 5499 5502 5504 5510 5511
5490 5491 5496 5513 5528 5511 5507 5518 5517 5522 5515 5511 5514 5529 5510 5498 5481 5468 5463 5455 5449 5447 5447 5445 5445 5441 5439 5440 5443 5445 5444 5446 5446 5447 5454 5456 5462 5470 5472 5471 5473 5478 5485 5491
5467 5463 5474 5483 5487 5480 5477 5473 5466 5466 5477 5485 5490 5488 5497 5506 5499 5460 5446 5434 5428 5424 5422 5418 5420 5417 5416 5415 5411 5412 5418 5420 5423 5426 5428 5433 5433 5440 5445 5448 5448 5454 5461 5467
5442 5448 5462 5466 5468 5464 5457 5451 5459 5450 5452 5437 5471 5453 5473 5470 5436 5431 5422 5419 5410 5405 5399 5395 5393 5390 5391 5388 5387 5383 5386 5391 5395 5402 5404 5408 5412 5415 5419 5423 5427 5431 5435 5439
5414 5426 5422 5418 5437 5433 5414 5422 5434 5434 5433 5430 5435 5442 5448 5412 5408 5408 5407 5401 5397 5392 5383 5376 5373 5368 5363 5360 5355 5357 5361 5366 5366 5364 5367 5375 5383 5389 5395 5396 5399 5405 5411 5414
5389 5395 5397 5397 5418 5388 5378 5425 5431 5441 5447 5440 5428 5414 5376 5379 5386 5392 5388 5384 5382 5379 5372 5362 5351 5346 5343 5340 5331 5328 5328 5335 5337 5338 5338 5342 5347 5355 5363 5368 5371 5378 5384 5395
5381 5376 5362 5365 5337 5345 5410 5398 5396 5401 5402 5375 5359 5352 5352 5354 5363 5367 5360 5356 5357 5352 5350 5347 5338 5332 5325 5317 5308 5305 5305 5302 5300 5300 5304 5311 5316 5325 5332 5336 5341 5351 5359 5368
5365 5358 5344 5330 5347 5362 5372 5377 5367 5361 5378 5350 5341 5333 5332 5332 5333 5351 5342 5335 5334 5331 5327 5323 5318 5313 5306 5299 5291 5287 5289 5284 5280 5277 5275 5275 5276 5280 5286 5293 5304 5315 5322 5337
5338 5333 5324 5268 5304 5325 5365 5343 5335 5331 5336 5312 5306 5311 5308 5304 5304 5333 5331 5323 5315 5311 5303 5295 5292 5289 5286 5281 5270 5263 5260 5257 5255 5256 5257 5254 5251 5250 5253 5259 5268 5276 5282 5294
5307 5301 5307 5311 5303 5321 5337 5322 5315 5307 5324 5302 5294 5297 5295 5288 5295 5304 5303 5299 5295 5287 5280 5272 5268 5267 5264 5256 5247 5245 5240 5235 5228 5226 5226 5228 5228 5226 5226 5227 5234 5239 5247 5259
5317 5302 5285 5258 5269 5289 5304 5293 5299 5315 5305 5300 5295 5295 5287 5285 5284 5282 5281 5278 5272 5260 5254 5248 5241 5240 5239 5226 5215 5218 5218 5212 5205 5200 5199 5198 5197 5199 5201 5200 5207 5209 5214 5227
5291 5306 5293 5278 5296 5307 5286 5294 5299 5299 5293 5297 5287 5287 5278 5274 5271 5267 5262 5252 5243 5232 5227 5222 5215 5213 5211 5202 5190 5187 5191 5181 5177 5173 5170 5166 5165 5168 5171 5174 5181 5183 5190 5198
5303 5298 5279 5275 5305 5295 5296 5297 5294 5291 5285 5283 5278 5270 5261 5254 5248 5237 5230 5224 5216 5209 5202 5196 5191 5188 5185 5173 5164 5153 5152 5146 5142 5144 5144 5140 5137 5140 5140 5144 5151 5159 5170 5179
5303 5282 5278 5270 5292 5284 5291 5286 5284 5281 5274 5264 5249 5243 5239 5230 5224 5217 5209 5200 5194 5186 5178 5169 5160 5158 5157 5148 5142 5131 5124 5118 5118 5116 5115 5113 5112 5115 5121 5124 5129 5136 5148 5152
5298 5284 5271 5273 5291 5278 5289 5283 5275 5264 5259 5239 5230 5223 5215 5207 5203 5197 5189 5181 5172 5164 5155 5147 5140 5132 5127 5122 5119 5112 5103 5098 5097 5100 5099 5099 5100 5102 5106 5111 5121 5120 5128 5137